sat.trackr.live / text

‹ back to catalog

STARLINK-2354

NORAD 47894 · 2021-021AL

PAYLOAD ACTIVE UNKNOWN

§ Identity

Operator
Country
US
Launch date
2021-03-14
Launch site
AFETR
Launch vehicle
Mass (kg)
RCS (m²)

Purposes: comms

External: N2YO · Heavens-Above · Gunter

§ Orbital elements

Epoch: 2026-09-20T03:26:24.944928Z

Period
93.42 min
Inclination
53.1483°
Eccentricity
0.0003699
Mean motion
15.41508159 rev/d
Perigee alt
439.1 km
Apogee alt
444.2 km
Semi-major
6,819.8 km
B*
9.6440e-4
RAAN
78.6211°
Arg perigee
132.4068°
Mean anomaly
227.7251°
Rev number
30,604

§ Raw data

STARLINK-23541 47894U 21021AL  26263.14334427  .00040880  00000+0  96440-3 0  99902 47894  53.1483  78.6211 0003699 132.4068 227.7251 15.41508159306042

JSON: /api/v1/satellites/47894 · /tle

For live sub-satellite position, see the globe view (requires WebGL).

§ Visibility from observer

Set your observer location to see the next 7 days of passes ≥ 10°. The values pass through the URL so the page stays shareable.

No JS? Fill the form by hand. The geolocation button needs JavaScript.